SID,Date,Time,pH,Iron,Mn,Color,Turbidity,Analyst
30761,01/01/1991,"0630      ",6.27,0.30,0.050,79,2.50,"JIM                                               "
30762,01/02/1991,"0830      ",6.27,0.70,0.000,78,0.86,"WLM                                               "
30763,01/03/1991,"0730      ",6.10,0.62,0.150,79,1.00,"CHR                                               "
30764,01/04/1991,"0730      ",6.11,0.65,0.100,62,0.95,"RTS                                               "
30765,01/05/1991,"0745      ",6.20,0.79,0.190,67,1.00,"RTS                                               "
30766,01/06/1991,"0725      ",6.05,0.88,0.090,82,1.45,"ACA                                               "
30767,01/07/1991,"0745      ",5.77,0.99,0.220,72,1.50,"JIM                                               "
30768,01/08/1991,"0730      ",5.46,0.49,0.400,62,0.99,"CHR                                               "
30769,01/09/1991,"0730      ",5.38,0.74,0.430,74,0.13,"CMG                                               "
30770,01/10/1991,"0745      ",5.88,0.60,0.500,76,1.20,"RTS                                               "
30771,01/11/1991,"0810      ",6.12,0.53,0.360,55,0.67,"CMG                                               "
30772,01/12/1991,"0715      ",6.12,0.57,0.270,49,0.81,"RTS                                               "
30773,01/13/1991,"0700      ",5.77,0.52,0.180,47,0.58,"VJD                                               "
30774,01/14/1991,"0750      ",5.43,0.56,0.160,50,0.70,"WLM                                               "
30775,01/15/1991,"0730      ",6.18,0.63,0.210,55,1.00,"RTS                                               "
30776,01/16/1991,"0800      ",6.14,0.60,0.180,48,1.10,"WLM                                               "
30777,01/17/1991,"0740      ",6.14,0.45,0.110,40,0.85,"RTS                                               "
30778,01/18/1991,"0740      ",6.21,0.55,0.140,56,1.00,"RTS                                               "
30779,01/19/1991,"0730      ",6.09,0.49,0.180,52,0.81,"RTS                                               "
30780,01/20/1991,"0700      ",5.74,0.50,0.200,58,0.90,"RTS                                               "
30781,01/21/1991,"0730      ",5.78,0.49,0.230,61,1.10,"WLM                                               "
30782,01/22/1991,"0730      ",6.10,0.46,0.210,55,0.90,"RTS                                               "
30783,01/23/1991,"0800      ",5.94,0.44,0.190,48,0.56,"WLM                                               "
30784,01/24/1991,"0730      ",6.37,0.58,0.140,51,0.71,"CHR                                               "
30785,01/25/1991,"0730      ",6.22,0.63,0.220,57,1.00,"RTS                                               "
30786,01/26/1991,"0730      ",6.24,0.61,0.200,53,0.79,"RTS                                               "
30787,01/27/1991,"0630      ",6.57,0.60,0.180,55,0.83,"CHR                                               "
30788,01/28/1991,"0715      ",5.71,0.64,0.120,59,1.30,"JIM                                               "
30789,01/29/1991,"0800      ",6.19,0.58,0.160,47,0.59,"CHR                                               "
30790,01/30/1991,"0800      ",5.85,0.71,0.230,45,0.80,"WLM                                               "
30791,01/31/1991,"0800      ",5.91,0.46,0.390,49,0.76,"CHR                                               "
30792,02/01/1991,"0730      ",6.23,0.55,0.240,46,0.89,"RTS                                               "
30793,02/02/1991,"0730      ",6.15,0.50,0.120,50,0.81,"RTS                                               "
30794,02/03/1991,"0700      ",6.08,0.52,0.150,57,0.85,"WLM                                               "
30795,02/04/1991,"0730      ",5.75,0.71,0.300,54,0.67,"JIM                                               "
30796,02/05/1991,"0720      ",6.12,0.58,0.190,46,0.82,"RTS                                               "
30797,02/06/1991,"0800      ",5.90,0.45,0.270,41,0.90,"WLM                                               "
30798,02/07/1991,"0800      ",5.90,0.44,0.240,40,0.70,"CHR                                               "
30799,02/08/1991,"0730      ",6.20,0.64,0.190,42,0.75,"RTS                                               "
30800,02/09/1991,"0730      ",6.17,0.53,0.190,45,0.79,"RTS                                               "
30801,02/10/1991,"0700      ",5.77,0.69,0.510,64,1.30,"CMG                                               "
30802,02/11/1991,"0740      ",5.66,0.56,0.160,50,1.10,"WLM                                               "
30803,02/12/1991,"0730      ",6.15,0.77,0.190,58,1.40,"RTS                                               "
30804,02/13/1991,"0740      ",6.05,0.62,0.230,47,1.10,"WLM                                               "
30805,02/14/1991,"0730      ",5.94,0.42,0.130,42,1.30,"WLM                                               "
30806,02/15/1991,"0720      ",6.14,0.86,0.200,46,0.96,"RTS                                               "
30807,02/16/1991,"0830      ",6.13,0.37,0.230,40,0.49,"RTS                                               "
30808,02/17/1991,"0730      ",5.96,0.96,0.120,51,1.20,"ACA                                               "
30809,02/18/1991,"0730      ",6.22,0.65,0.190,50,1.10,"RTS                                               "
30810,02/19/1991,"0730      ",6.08,0.46,0.220,44,0.69,"WLM                                               "
30811,02/20/1991,"0730      ",6.20,0.48,0.200,57,0.80,"WLM                                               "
30812,02/21/1991,"0745      ",5.31,0.58,0.290,47,0.73,"CHR                                               "
30813,02/22/1991,"0730      ",6.22,0.56,0.450,40,0.69,"RTS                                               "
30814,02/23/1991,"1000      ",6.15,0.44,0.370,40,0.73,"RTS                                               "
30815,02/24/1991,"0730      ",6.18,0.93,0.290,42,1.00,"CMG                                               "
30816,02/25/1991,"0750      ",6.25,0.67,0.290,40,1.00,"WLM                                               "
30817,02/26/1991,"0830      ",6.22,0.45,0.230,38,0.58,"RTS                                               "
30818,02/27/1991,"0800      ",6.17,0.43,0.180,49,0.71,"WLM                                               "
30819,02/28/1991,"0730      ",5.55,0.50,0.180,37,0.71,"WLM                                               "
30820,03/01/1991,"0810      ",6.28,0.46,0.170,32,0.59,"RTS                                               "
30821,03/02/1991,"0740      ",6.07,0.43,0.190,32,0.55,"RTS                                               "
30822,03/03/1991,"0730      ",5.96,0.64,0.160,35,0.70,"ACA                                               "
30823,03/04/1991,"0745      ",5.90,0.64,0.190,48,1.40,"JIM                                               "
30824,03/05/1991,"0815      ",6.08,0.42,0.200,39,0.62,"RTS                                               "
30825,03/06/1991,"0730      ",6.14,0.36,0.180,47,0.80,"WLM                                               "
30826,03/07/1991,"0800      ",5.59,0.42,0.230,49,0.74,"CHR                                               "
30827,03/08/1991,"0740      ",6.29,0.56,0.220,51,0.90,"RTS                                               "
30828,03/09/1991,"0700      ",6.17,0.52,0.180,49,0.91,"RTS                                               "
30829,03/10/1991,"0730      ",5.94,0.49,0.300,53,0.85,"WBB                                               "
30830,03/11/1991,"0800      ",5.92,0.53,0.140,45,0.73,"JIM                                               "
30831,03/12/1991,"0735      ",6.17,0.50,0.160,47,0.81,"WLM                                               "
30832,03/13/1991,"0730      ",5.97,0.84,0.140,59,0.80,"WLM                                               "
30833,03/14/1991,"0800      ",5.78,0.42,0.120,48,0.65,"WLM                                               "
30834,03/15/1991,"0735      ",6.17,0.68,0.150,56,1.10,"RTS                                               "
30835,03/16/1991,"0740      ",6.18,0.47,0.170,48,0.74,"RTS                                               "
30836,03/17/1991,"0720      ",5.94,0.65,0.090,49,0.95,"ACA                                               "
30837,03/18/1991,"0745      ",5.96,0.65,0.160,54,1.10,"JIM                                               "
30838,03/19/1991,"0745      ",6.20,0.61,0.330,49,0.93,"RTS                                               "
30839,03/20/1991,"0800      ",6.10,0.52,0.180,53,0.95,"WLM                                               "
30840,03/21/1991,"0800      ",6.00,0.61,0.130,55,0.80,"WLM                                               "
30841,03/22/1991,"0730      ",6.10,0.52,0.170,59,0.98,"WLM                                               "
30842,03/23/1991,"0800      ",6.14,0.40,0.430,46,0.56,"CMG                                               "
30843,03/24/1991,"0630      ",6.36,0.64,0.460,49,0.79,"JIM                                               "
30844,03/25/1991,"0745      ",5.70,0.85,0.080,59,1.10,"RTS                                               "
30845,03/26/1991,"0745      ",5.81,0.62,0.120,58,1.20,"RTS                                               "
30846,03/27/1991,"0730      ",6.27,0.63,0.320,59,1.00,"RTS                                               "
30847,03/28/1991,"0730      ",6.15,0.60,0.300,71,1.30,"RTS                                               "
30848,03/29/1991,"0800      ",5.50,0.47,0.240,55,0.50,"VJD                                               "
30849,03/30/1991,"0730      ",6.24,0.54,0.300,59,0.70,"RTS                                               "
30850,03/31/1991,"0700      ",5.94,0.71,0.200,61,1.00,"ACA                                               "
30851,04/01/1991,"1145      ",5.64,0.52,0.180,58,0.61,"JIM                                               "
30852,04/02/1991,"0730      ",6.20,0.57,0.140,60,0.60,"RTS                                               "
30853,04/03/1991,"0750      ",6.10,0.54,0.000,62,0.54,"VJD                                               "
30854,04/04/1991,"0730      ",5.78,0.54,0.230,67,0.60,"WLM                                               "
30855,04/05/1991,"0730      ",6.21,0.69,0.140,65,0.84,"WLM                                               "
30856,04/06/1991,"0735      ",6.26,0.58,0.230,68,0.79,"RTS                                               "
30857,04/07/1991,"0730      ",6.10,0.58,0.180,67,0.85,"WLM                                               "
30858,04/08/1991,"1000      ",6.04,0.86,0.180,63,0.73,"JIM                                               "
30859,04/09/1991,"0730      ",6.14,0.78,0.150,64,1.10,"WLM                                               "
30860,04/10/1991,"0730      ",6.34,0.67,0.120,68,0.95,"WLM                                               "
30861,04/11/1991,"0730      ",6.21,0.71,0.190,65,0.64,"WLM                                               "
30862,04/12/1991,"0730      ",6.25,0.70,0.270,64,0.77,"RTS                                               "
30863,04/13/1991,"0730      ",6.25,0.96,0.200,74,1.20,"RTS                                               "
30864,04/14/1991,"0730      ",5.25,0.53,0.270,57,1.00,"CHR                                               "
30865,04/15/1991,"0650      ",5.60,0.61,0.230,56,0.57,"WLM                                               "
30866,04/16/1991,"0720      ",5.40,0.68,0.200,54,0.84,"WLM                                               "
30867,04/17/1991,"0730      ",5.35,0.71,0.250,61,0.95,"WLM                                               "
30868,04/18/1991,"0730      ",5.27,0.54,0.200,54,0.95,"WLM                                               "
30869,04/19/1991,"0840      ",6.20,0.73,0.310,58,0.85,"RTS                                               "
30870,04/20/1991,"0730      ",6.07,0.55,0.200,53,0.62,"RTS                                               "
30871,04/21/1991,"0700      ",6.00,0.57,0.180,57,0.80,"RTS                                               "
30872,04/22/1991,"0700      ",5.78,0.63,0.120,55,0.63,"JIM                                               "
30873,04/23/1991,"0745      ",6.33,0.43,0.130,72,0.65,"CHR                                               "
30874,04/24/1991,"0730      ",5.90,0.47,0.150,70,0.85,"WLM                                               "
30875,04/25/1991,"0730      ",5.77,0.75,0.300,85,0.85,"VJD                                               "
30876,04/26/1991,"0730      ",5.64,0.71,0.120,93,1.50,"WLM                                               "
30877,04/27/1991,"0640      ",5.98,0.90,0.110,95,1.00,"ACA                                               "
30878,04/28/1991,"0630      ",6.03,0.83,0.020,98,1.00,"ACA                                               "
30879,04/29/1991,"0745      ",6.12,1.03,0.260,106,0.78,"JIM                                               "
30880,04/30/1991,"0730      ",6.25,0.81,0.070,98, ,"CHR                                               "
30881,05/01/1991,"0730      ",6.03,0.68,0.100,101,0.95,"WLM                                               "
30882,05/02/1991,"0745      ",6.16,0.60,0.160,105,0.76,"CHR                                               "
30883,05/03/1991,"0745      ",6.01,0.52,0.180,105,0.70,"WLM                                               "
30884,05/04/1991,"0730      ",6.25,0.92,0.240,111,0.83,"RTS                                               "
30885,05/05/1991,"0700      ",6.10,0.67,0.310,108,0.85,"CHR                                               "
30886,05/06/1991,"0745      ",5.68,1.26,0.150,129,0.85,"JIM                                               "
30887,05/07/1991,"0745      ",5.68,0.80,0.140,109,0.86,"CHR                                               "
30888,05/08/1991,"0730      ",6.08,0.85,0.220,111,0.00,"WLM                                               "
30889,05/09/1991,"0730      ",6.20,1.07,0.280,104,0.95,"WLM                                               "
30890,05/10/1991,"0730      ",6.21,1.18,0.320,134,1.60,"RTS                                               "
30891,05/11/1991,"0730      ",6.15,1.29,0.260,127,1.30,"RTS                                               "
30892,05/12/1991,"0800      ",5.95,1.30,0.100,123,1.10,"ACA                                               "
30893,05/13/1991,"0945      ",5.80,0.63,0.210,101,0.63,"JMC                                               "
30894,05/14/1991,"0900      ",5.88,0.62,0.100,98,0.63,"JMC                                               "
30895,05/15/1991,"0835      ",5.76,0.70,0.100,95,0.58,"JMC                                               "
30896,05/16/1991,"0910      ",5.95,0.88,0.100,91,0.56,"JMC                                               "
30897,05/17/1991,"0845      ",5.86,0.65,0.100,84,0.56,"JMC                                               "
30898,05/18/1991,"0710      ",6.07,0.80,0.090,100,0.72,"RTS                                               "
30899,05/19/1991,"0745      ",6.13,0.69,0.170,89,0.63,"MJM                                               "
30900,05/20/1991,"0730      ",6.11,0.79,0.200,81,0.75,"JMC                                               "
30901,05/21/1991,"0850      ",5.88,0.76,0.280,79,0.65,"JMC                                               "
30902,05/22/1991,"0830      ",6.23,1.62,0.680,66,0.80,"JMC                                               "
30903,05/23/1991,"0830      ",6.22,1.93,0.750,77,1.93,"JMC                                               "
30904,05/24/1991,"0755      ",6.20,1.76,0.640,62,0.71,"JMC                                               "
30905,05/25/1991,"0730      ",6.09,1.80,0.870,66,1.10,"RTS                                               "
30906,05/26/1991,"0700      ",6.88,2.05,0.920,53,0.91,"JMC                                               "
30907,05/27/1991,"0650      ",6.14,1.72,1.020,48,0.86,"RTS                                               "
30908,05/28/1991,"0930      ",6.16,1.52,0.790,58,0.82,"VJD                                               "
30909,05/29/1991,"0800      ",6.00,2.57,0.070,79,2.40,"MJM                                               "
30910,05/30/1991,"0840      ",6.32,2.69,0.800,55,1.00,"ACA                                               "
30911,05/31/1991,"0745      ",6.14,2.18,0.950,63,1.50,"MJM                                               "
30912,06/01/1991,"0630      ",6.10,2.05,0.870,58,1.20,"WLM                                               "
30913,06/02/1991,"0630      ",6.82,2.28,0.860,64,2.10,"JMC                                               "
30914,06/03/1991,"0840      ",6.32,2.69,0.800,55,1.00,"MJM                                               "
30915,06/04/1991,"0700      ",6.24,1.87,0.950,62,1.30,"WLM                                               "
30916,06/05/1991,"0800      ",6.30,1.57,0.840,63,0.13,"JMC                                               "
30917,06/06/1991,"0000      ",6.18,1.81,0.720,88,2.90,"JMC                                               "
30918,06/07/1991,"0630      ",6.17,1.83,0.690,84,2.20,"RTS                                               "
30919,06/08/1991,"0630      ",6.10,2.12,0.690,85,2.55,"ACA                                               "
30920,06/09/1991,"0830      ",6.12,1.82,0.650,69,2.00,"MJM                                               "
30921,06/10/1991,"0730      ",5.91,1.60,0.770,66,1.50,"WLM                                               "
30922,06/11/1991,"0730      ",5.72,1.61,0.800,65,1.49,"ACA                                               "
30923,06/12/1991,"0700      ",6.09,1.79,0.720,67,1.55,"ACA                                               "
30924,06/13/1991,"0800      ",6.17,1.67,0.750,59,1.40,"WLM                                               "
30925,06/14/1991,"0730      ",6.18,1.81,0.910,57,1.30,"CHR                                               "
30926,06/15/1991,"0700      ",6.19,1.74,1.000,46,1.40,"RTS                                               "
30927,06/16/1991,"0645      ",5.76,1.98,0.950,57,1.70,"VJD                                               "
30928,06/17/1991,"0715      ",5.76,1.89,0.720,56,1.20,"WLM                                               "
30929,06/18/1991,"0745      ",6.13,1.73,0.640,53,1.20,"WLM                                               "
30930,06/19/1991,"0700      ",6.08,1.93,0.710,49,1.20,"WLM                                               "
30931,06/20/1991,"0730      ",6.01,2.59,0.770,64,2.40,"ACA                                               "
30932,06/21/1991,"0730      ",5.92,1.84,0.670,57,1.50,"WLM                                               "
30933,06/22/1991,"0640      ",6.13,1.73,0.720,47,1.30,"WLM                                               "
30934,06/23/1991,"0730      ",6.22,2.10,0.830,59,2.00,"WLM                                               "
30935,06/24/1991,"0815      ",5.99,2.09,0.720,49,1.30,"JMC                                               "
30936,06/25/1991,"0815      ",6.26,2.06,0.920,45,1.02,"JMC                                               "
30937,06/26/1991,"0730      ",6.00,1.97,0.740,53,1.55,"ACA                                               "
30938,06/27/1991,"0815      ",6.08,2.00,0.760,50,1.40,"JMC                                               "
30939,06/28/1991,"0730      ",6.14,1.94,0.710,52,1.60,"MJM                                               "
30940,06/29/1991,"0630      ",6.13,2.12,1.080,59,2.00,"RTS                                               "
30941,06/30/1991,"0715      ",6.07,1.95,0.960,53,1.80,"JMC                                               "
30942,07/01/1991,"0700      ",5.67,2.01,0.970,50,1.80,"CHR                                               "
30943,07/02/1991,"0820      ",6.21,1.99,0.930,47,1.20,"JMC                                               "
30944,07/03/1991,"0730      ",5.98,1.75,0.850,51,1.30,"WLM                                               "
30945,07/04/1991,"0700      ",6.08,2.45,1.030,52,2.00,"RTS                                               "
30946,07/05/1991,"0630      ",6.15,1.97,0.980,43,2.50,"RTS                                               "
30947,07/06/1991,"0730      ",6.20,2.12,1.050,59,2.20,"RTS                                               "
30948,07/07/1991,"0715      ",6.12,2.76,0.890,57,3.00,"ACA                                               "
30949,07/08/1991,"0640      ",6.16,2.20,1.000,63,3.00,"RTS                                               "
30950,07/09/1991,"0640      ",6.14,2.25,0.990,62,2.50,"RTS                                               "
30951,07/10/1991,"0750      ",5.97,1.76,0.990,41,1.20,"WLM                                               "
30952,07/11/1991,"0000      ",6.15,2.23,1.150,48,2.90,"JMC                                               "
30953,07/12/1991,"0745      ",6.04,2.14,1.060,51,2.50,"RTS                                               "
30954,07/13/1991,"0745      ",6.09,3.30,1.120,112,8.50,"RTS                                               "
30955,07/14/1991,"0710      ",6.38,2.95,1.080,52,3.70,"WLM                                               "
30956,07/15/1991,"0645      ",6.08,2.27,1.120,40,2.00,"RTS                                               "
30957,07/16/1991,"0645      ",6.16,2.47,1.110,41,2.20,"RTS                                               "
30958,07/17/1991,"0720      ",6.11,2.12,0.920,39,1.90,"ACA                                               "
30959,07/18/1991,"0640      ",6.05,2.59,1.100,48,3.00,"RTS                                               "
30960,07/19/1991,"0640      ",6.05,2.72,0.400,47,2.90,"RTS                                               "
30961,07/20/1991,"0755      ",6.07,2.68,1.070,56,3.50,"RTS                                               "
30962,07/21/1991,"0730      ",6.14,2.10,0.920,41,2.00,"MJM                                               "
30963,07/22/1991,"0740      ",6.11,2.32,1.190,40,2.00,"RTS                                               "
30964,07/23/1991,"0730      ",6.02,1.88,0.790,31,1.50,"ACA                                               "
30965,07/24/1991,"0700      ",6.15,2.11,0.750,38,1.80,"WLM                                               "
30966,07/25/1991,"0645      ",6.13,2.34,1.190,24,2.20,"RTS                                               "
30967,07/26/1991,"0745      ",6.13,2.22,1.110,43,2.50,"RTS                                               "
30968,07/27/1991,"0800      ",6.14,1.89,1.140,35,1.60,"RTS                                               "
30969,07/28/1991,"0630      ",6.19,1.83,0.890,43,3.10,"JMC                                               "
30970,07/29/1991,"0655      ",5.90,2.18,1.150,41,2.30,"RTS                                               "
30971,07/30/1991,"0645      ",5.96,2.36,1.130,42,2.20,"RTS                                               "
30972,07/31/1991,"0820      ",6.07,3.33,1.000,46,3.00,"JMC                                               "
30973,08/01/1991,"0700      ",6.15,1.97,1.040,48,0.23,"JMC                                               "
30974,08/02/1991,"0640      ",6.12,2.13,1.090,53,3.50,"RTS                                               "
30975,08/03/1991,"0650      ",6.19,1.94,0.950,55,3.30,"RTS                                               "
30976,08/04/1991,"0715      ",5.95,1.89,1.060,38,2.50,"MJM                                               "
30977,08/05/1991,"0715      ",6.01,2.50,0.730,61,4.45,"JMC                                               "
30978,08/06/1991,"0730      ",6.36,1.89,1.180,36,0.18,"JMC                                               "
30979,08/07/1991,"0815      ",6.47,3.30,1.070,61,5.80,"JMC                                               "
30980,08/08/1991,"0715      ",6.07,2.38,0.650,43,3.00,"ACA                                               "
30981,08/09/1991,"0730      ",6.15,2.50,0.810,48,2.75,"ACA                                               "